This is the latest recevied weather packets stored in our database for station/object TG8AKV-17. If no packets are shown the sender has not sent any weather packets the latest 10 day(s).
| Time | Temp. | Humidity | Pressure | Rain* | Wind** | Luminosity | Snow |
|---|---|---|---|---|---|---|---|
| 1777828641 | 20° C | 69% | 1017 hPa | 0 mm | - | - | - |
| 1777828040 | 20° C | 67% | 1017 hPa | 0 mm | - | - | - |
| 1777827438 | 20° C | 63% | 1017 hPa | 0 mm | - | - | - |
| 1777826838 | 20° C | 66% | 1017 hPa | 0 mm | - | - | - |
| 1777826237 | 20° C | 66% | 1017 hPa | 0 mm | - | - | - |
| 1777825635 | 19.44° C | 68% | 1017 hPa | 0 mm | - | - | - |
| 1777825035 | 18.89° C | 65% | 1017 hPa | 0 mm | - | - | - |
| 1777824434 | 17.78° C | 64% | 1017 hPa | 0 mm | - | - | - |
| 1777823833 | 17.78° C | 64% | 1017 hPa | 0 mm | - | - | - |
| 1777823233 | 17.78° C | 60% | 1017 hPa | 0 mm | - | - | - |
| 1777822632 | 17.78° C | 63% | 1017 hPa | 0 mm | - | - | - |
| 1777822032 | 17.22° C | 69% | 1017 hPa | 0 mm | - | - | - |
| 1777821431 | 16.67° C | 75% | 1017 hPa | 0 mm | - | - | - |
| 1777820830 | 15.56° C | 84% | 1017 hPa | 0 mm | - | - | - |
| 1777820230 | 15.56° C | 80% | 1017 hPa | 0 mm | - | - | - |
| 1777819629 | 15.56° C | 80% | 1017 hPa | 0 mm | - | - | - |
| 1777819028 | 15.56° C | 81% | 1017 hPa | 0 mm | - | - | - |
| 1777818428 | 15.56° C | 83% | 1017 hPa | 0 mm | - | - | - |
| 1777817827 | 15° C | 86% | 1017 hPa | 0 mm | - | - | - |
| 1777817227 | 14.44° C | 94% | 1017 hPa | 0 mm | - | - | - |
| 1777816626 | 14.44° C | 93% | 1017 hPa | 0 mm | - | - | - |
| 1777816026 | 14.44° C | 91% | 1017 hPa | 0 mm | - | - | - |
| 1777815425 | 12.22° C | 95% | 1017 hPa | 0 mm | - | - | - |
| 1777814825 | 12.22° C | 95% | 1018 hPa | 0 mm | - | - | - |
| 1777814224 | 12.22° C | 95% | 1018 hPa | 0 mm | - | - | - |
* Rain latest hour (hover to see other rain measurements)
** Current wind speed in m/s (hover to see current wind gust speed)